Location: Aalen
(48.8330°N, 10.1000°E)
Time: 04:56:04
(UTC+02:00)

Transit 2A - Pass Details

Date: 04 August 2021
Orbit: 594 x 964 km, 66.7° (Epoch: 27 September)

Event Time Altitude Azimuth Distance (km) Brightness Sun altitude
Rises 05:32:14 0° 159° (SSE) 2,834 8.8 -4.4°
Reaches altitude 10° 05:35:36 10° 131° (SE) 1,970 8.4 -3.9°
Maximum altitude 05:37:32 13° 104° (ESE) 1,823 8.7 -3.6°
Drops below altitude 10° 05:39:31 10° 78° (ENE) 2,035 9.7 -3.4°
Sets 05:43:06 0° 51° (NE) 3,024 11.6 -2.9°
